Marshfield, WI

11:41 AM CST on November 22, 2019 (GMT -0600)
Marshfield Municipal

Weather History for KMFI - September, 2019

Change the Weather History Date:

Thursday, September 12, 2019

  Actual Average Record
Temperature  
Mean Temperature 57 °F -  
Max Temperature 61 °F 73 °F 90 °F (1931)
Min Temperature 54 °F 48 °F 29 °F (1955)
Degree Days  
Heating Degree Days 8    
Growing Degree Days 7 (Base 50)    
Moisture  
Dew Point 55 °F    
Average Humidity 93    
Maximum Humidity 100    
Minimum Humidity 89    
Precipitation  
Precipitation 1.42 in - - ()
Sea Level Pressure  
Sea Level Pressure 30.07 in    
Wind  
Wind Speed 14 mph (ESE)    
Max Wind Speed 21 mph    
Max Gust Speed 33 mph    
Visibility 5 miles    
Events Rain , Thunderstorm    
Averages and records for this station are not official NWS values.
T = Trace of Precipitation, MM = Missing Value Source: NWS Daily Summary

Daily Weather History Graph

Daily Weather History Graph

Search for Another Location

Airport or City:

Astronomy

Sep. 12, 2019 Rise Set
Actual Time 6:35 AM CDT 7:17 PM CDT
Civil Twilight 6:06 AM CDT 7:46 PM CDT
Nautical Twilight 5:31 AM CDT 8:21 PM CDT
Astronomical Twilight 4:55 AM CDT 8:57 PM CDT
Moon 7:06 PM CDT (9/12) 4:48 AM CDT (9/12)
Length of Visible Light 13h 40m
Length of Day
12h 41m
Waxing Gibbous, 98% of the Moon is Illuminated
Sep 12
Waxing Gibbous
Sep 13
Full
Sep 21
Last Quarter
Sep 28
New
Oct 5
First Quarter

Hourly Weather History & Observations

Time (CDT) Temp. Dew Point Humidity Pressure Visibility Wind Dir Wind Speed Gust Speed Precip Events Conditions
12:12 AM 55.0 °F 53.1 °F 93% 30.13 in 3.0 mi East 12.7 mph - N/A   Overcast
12:32 AM 55.0 °F 53.1 °F 93% 30.13 in 4.0 mi ENE 15.0 mph - N/A   Overcast
12:54 AM 55.0 °F 53.1 °F 93% 30.14 in 4.0 mi ENE 13.8 mph - N/A   Overcast
1:07 AM 54.0 °F 53.1 °F 97% 30.13 in 4.0 mi East 12.7 mph - N/A   Overcast
1:25 AM 55.0 °F 53.1 °F 93% 30.13 in 6.0 mi East 15.0 mph 23.0 mph N/A   Overcast
1:54 AM 54.0 °F 52.0 °F 93% 30.14 in 10.0 mi East 12.7 mph - N/A   Overcast
2:54 AM 55.0 °F 52.0 °F 89% 30.15 in 10.0 mi East 12.7 mph - N/A   Overcast
3:54 AM 55.0 °F 52.0 °F 89% 30.16 in 10.0 mi East 10.4 mph - N/A   Overcast
4:54 AM 55.0 °F 53.1 °F 93% 30.18 in 3.0 mi East 9.2 mph 20.7 mph N/A   Overcast
5:12 AM 55.0 °F 53.1 °F 93% 30.17 in 3.0 mi East 13.8 mph - N/A   Overcast
5:54 AM 55.0 °F 53.1 °F 93% 30.19 in 8.0 mi ESE 9.2 mph - N/A   Overcast
6:54 AM 55.0 °F 53.1 °F 93% 30.15 in 5.0 mi ESE 13.8 mph 23.0 mph 0.03 in   Overcast
7:06 AM 55.0 °F 53.1 °F 93% 30.14 in 3.0 mi East 13.8 mph 23.0 mph N/A   Overcast
7:54 AM 55.9 °F 54.0 °F 93% 30.14 in 10.0 mi East 17.3 mph 25.3 mph 0.00 in   Overcast
8:20 AM 55.9 °F 54.0 °F 93% 30.14 in 10.0 mi East 13.8 mph - N/A   Overcast
8:54 AM 57.0 °F 54.0 °F 89% 30.14 in 10.0 mi East 11.5 mph 24.2 mph N/A   Overcast
9:16 AM 57.0 °F 55.0 °F 93% 30.15 in 10.0 mi ESE 16.1 mph 24.2 mph N/A   Overcast
9:46 AM 57.0 °F 55.0 °F 93% 30.14 in 9.0 mi East 16.1 mph 29.9 mph N/A   Overcast
9:54 AM 57.0 °F 55.0 °F 93% 30.15 in 8.0 mi ESE 13.8 mph 24.2 mph N/A   Overcast
10:05 AM 57.0 °F 55.0 °F 93% 30.15 in 7.0 mi ESE 13.8 mph 25.3 mph N/A   Overcast
10:54 AM 57.0 °F 55.0 °F 93% 30.16 in 6.0 mi ESE 13.8 mph 25.3 mph N/A   Overcast
11:34 AM 57.9 °F 55.9 °F 93% 30.15 in 5.0 mi ESE 16.1 mph 26.5 mph N/A   Overcast
11:54 AM 57.9 °F 55.9 °F 93% 30.17 in 5.0 mi ESE 13.8 mph 23.0 mph N/A   Overcast
12:54 PM 57.9 °F 55.9 °F 93% 30.13 in 5.0 mi East 11.5 mph 23.0 mph 0.01 in Rain Light Rain
1:54 PM 57.9 °F 55.9 °F 93% 30.12 in 6.0 mi ESE 16.1 mph - 0.00 in   Overcast
2:30 PM 57.9 °F 55.9 °F 93% 30.08 in 6.0 mi ESE 15.0 mph 28.8 mph N/A   Overcast
2:54 PM 57.9 °F 55.9 °F 93% 30.09 in 4.0 mi East 13.8 mph 28.8 mph N/A   Overcast
3:17 PM 57.9 °F 55.9 °F 93% 30.06 in 2.5 mi East 20.7 mph 32.2 mph N/A   Overcast
3:54 PM 57.9 °F 55.9 °F 93% 30.05 in 3.0 mi ESE 16.1 mph 26.5 mph N/A   Overcast
4:13 PM 57.9 °F 55.9 °F 93% 30.04 in 2.5 mi East 20.7 mph 29.9 mph N/A   Overcast
4:47 PM 57.0 °F 55.9 °F 96% 30.01 in 2.5 mi ESE 18.4 mph 33.4 mph N/A   Overcast
4:54 PM 57.0 °F 55.9 °F 96% 30.04 in 3.0 mi ESE 15.0 mph 32.2 mph N/A   Overcast
5:54 PM 57.9 °F 55.9 °F 93% 30.03 in 3.0 mi ESE 13.8 mph 26.5 mph N/A   Overcast
6:03 PM 57.9 °F 55.9 °F 93% 30.01 in 2.0 mi ESE 16.1 mph - N/A   Overcast
6:14 PM 57.9 °F 55.9 °F 93% 30.01 in 1.8 mi ESE 17.3 mph 27.6 mph N/A   Overcast
6:31 PM 57.9 °F 55.9 °F 93% 30.00 in 1.5 mi ESE 16.1 mph - 0.00 in Rain Rain
6:42 PM 57.9 °F 55.9 °F 93% 30.01 in 1.8 mi ESE 17.3 mph 25.3 mph 0.00 in Rain , Thunderstorm Light Rain
6:51 PM 57.2 °F 57.2 °F 100% 30.05 in 2.0 mi SW 9.2 mph 23.0 mph 0.01 in Rain , Thunderstorm Rain
6:54 PM 57.9 °F 57.0 °F 97% 30.07 in 2.0 mi West 15.0 mph 23.0 mph 0.03 in Rain , Thunderstorm Heavy Rain
7:03 PM 57.9 °F 57.0 °F 97% 30.08 in 1.2 mi West 11.5 mph - 0.12 in Rain , Thunderstorm Heavy Thunderstorms and Rain
7:10 PM 59.0 °F 57.0 °F 93% 30.07 in 1.8 mi Variable 4.6 mph - 0.18 in Rain , Thunderstorm Heavy Thunderstorms and Rain
7:16 PM 57.9 °F 57.0 °F 97% 30.06 in 1.0 mi ESE 8.1 mph - 0.36 in Rain , Thunderstorm Heavy Thunderstorms and Rain
7:33 PM 60.1 °F 57.9 °F 93% 30.02 in 1.2 mi SE 12.7 mph 21.9 mph 0.71 in Rain , Thunderstorm Heavy Thunderstorms and Rain
7:40 PM 60.1 °F 57.9 °F 93% 30.02 in 2.0 mi SE 12.7 mph - 0.74 in Rain , Thunderstorm Heavy Thunderstorms and Rain
7:54 PM 59.0 °F - N/A% 30.02 in 2.0 mi SE 17.3 mph 25.3 mph 0.86 in Rain , Thunderstorm Heavy Rain
8:09 PM 59.0 °F - N/A% 30.00 in 3.0 mi ESE 12.7 mph - 0.07 in Rain Heavy Rain
8:18 PM 60.1 °F - N/A% 30.00 in 4.0 mi ESE 13.8 mph - 0.10 in Rain , Thunderstorm Heavy Rain
8:33 PM 60.1 °F - N/A% 30.02 in 4.0 mi ESE 13.8 mph - 0.16 in Rain Heavy Rain
8:54 PM 59.0 °F - N/A% 29.98 in 4.0 mi East 17.3 mph 27.6 mph 0.25 in Rain Heavy Rain
9:36 PM 59.0 °F - N/A% 29.95 in 10.0 mi ESE 9.2 mph - 0.04 in   Mostly Cloudy
9:54 PM 59.0 °F - N/A% 29.94 in 10.0 mi East 10.4 mph - 0.04 in   Overcast
10:18 PM 59.0 °F - N/A% 29.96 in 3.0 mi East 6.9 mph - 0.07 in Rain Rain
10:33 PM 59.0 °F - N/A% 29.94 in 4.0 mi East 10.4 mph - 0.13 in Rain Rain
10:54 PM 59.0 °F - N/A% 29.93 in 6.0 mi East 10.4 mph - 0.17 in Rain Light Rain
11:54 PM 59.0 °F - N/A% 29.90 in 9.0 mi ESE 10.4 mph - 0.03 in Rain Light Rain